GFSFLT2_prec_cloud_132.txt.gz
Cloud_Cover
2 0 0 18 90 45 100 100 91 100 100 100 100 100 100 81 54 80 32 100 100 100 1 1 5 5 0 0 2 1 4 5
77 8 0 5 36 95 54 100 100 94 100 100 100 100 100 98 54 76 16 96 77 100 39 5 4 4 0 0 0 2 4 0
16 2 58 70 0 4 99 100 89 75 100 100 100 100 100 100 98 99 85 100 92 94 99 3 0 0 0 0 0 0 5 1
95 83 49 14 74 76 95 16 98 100 100 100 100 100 100 100 100 62 100 98 100 80 100 80 0 0 82 0 0 0 11 5
95 77 28 12 100 100 76 4 38 100 86 100 100 100 100 100 92 100 100 86 78 100 98 100 52 4 9 67 0 0 0 0
89 100 54 94 100 100 100 58 97 87 51 100 75 100 47 90 90 100 100 100 100 100 73 100 52 77 24 100 100 21 8 0
40 76 15 98 21 100 100 100 44 73 88 90 100 99 95 100 100 100 95 100 100 100 100 72 100 80 4 15 50 100 77 33
0 2 5 100 82 95 100 100 100 54 90 37 100 100 100 100 100 100 100 100 100 100 100 100 100 95 5 5 81 39 0 60
10 98 100 5 98 100 100 100 100 100 6 1 58 100 100 100 100 100 100 100 100 100 100 100 100 100 100 26 41 5 2 2
1 1 19 95 84 100 100 100 13 44 84 7 84 100 100 100 100 100 91 100 100 100 100 100 100 100 97 100 100 82 12 26
0 3 2 7 99 100 100 100 13 66 93 89 100 100 100 100 100 100 100 100 100 100 100 100 100 100 100 100 100 100 100 100
1 1 5 99 63 5 92 100 5 76 100 15 92 100 100 100 100 100 100 100 100 100 100 100 100 100 100 100 100 100 100 100
4 4 2 8 5 0 0 2 16 98 100 62 17 100 100 82 100 100 100 100 100 100 100 100 100 90 97 100 98 100 98 46
39 11 29 4 2 0 0 0 0 0 87 96 100 94 100 100 100 74 100 100 100 100 100 100 100 100 100 100 100 100 100 100
11 83 4 43 13 4 0 0 0 0 0 83 50 100 100 100 100 100 100 100 100 100 100 100 100 100 100 100 100 100 100 99
5 1 4 5 13 2 0 0 0 0 4 92 90 100 100 100 100 100 94 100 100 100 100 100 100 100 100 100 100 100 99 99
5 3 1 0 1 5 0 1 0 1 58 1 100 100 100 100 100 93 69 95 99 100 100 100 100 100 100 100 100 99 100 100
5 5 62 6 15 24 57 91 4 6 100 18 74 100 100 100 100 91 98 91 90 100 100 100 100 100 100 100 100 100 100 100
0 0 0 3 70 99 100 100 99 71 30 97 66 56 100 100 100 100 100 97 45 100 100 100 100 100 100 100 100 100 100 100

GFSFLT2_prec_cloud_135.txt.gz
Cloud_Cover
34 0 0 0 71 84 100 30 62 57 100 100 100 100 97 100 84 94 94 100 25 40 100 0 9 22 5 5 5 57 0 0
83 14 2 0 0 3 72 5 72 6 98 100 96 100 100 100 100 100 100 100 74 80 32 42 18 1 1 3 0 3 26 0
3 58 12 3 3 0 0 23 95 99 100 100 100 100 100 100 100 100 100 98 100 72 100 100 98 0 0 0 0 0 0 0
4 1 39 4 0 5 5 49 100 98 96 100 100 100 100 100 100 100 100 100 49 99 6 79 78 2 4 2 5 5 0 1
8 12 5 79 1 2 0 49 100 100 100 100 100 100 100 100 100 100 100 100 99 100 21 93 100 98 3 0 4 5 5 3
3 16 19 61 40 76 28 17 100 100 99 100 100 100 100 100 99 100 100 100 100 100 43 100 6 11 100 14 1 4 0 0
1 60 4 4 1 79 96 5 100 89 5 100 100 100 100 100 100 100 100 87 95 100 96 96 80 70 100 58 0 42 74 8
0 2 13 2 72 15 90 43 5 19 56 100 100 100 100 100 100 100 100 100 100 100 100 100 98 70 62 97 100 100 100 100
0 12 2 45 93 83 86 100 87 6 32 9 100 100 100 100 100 100 100 100 100 100 100 100 100 100 100 100 100 100 100 100
0 0 0 5 100 100 86 98 18 62 37 8 74 100 100 99 100 100 100 100 100 100 100 100 100 100 100 100 100 100 100 100
1 0 0 1 92 68 5 4 75 1 5 0 1 100 100 100 92 97 100 100 100 100 100 100 100 100 100 100 100 100 94 100
5 0 0 5 13 98 36 6 100 100 16 58 0 1 61 100 81 97 100 100 100 100 100 100 100 100 100 100 100 100 93 100
5 1 0 4 5 5 1 1 16 100 81 0 0 0 1 7 86 100 96 98 100 100 100 100 100 100 100 100 100 100 100 100
82 21 73 24 17 10 0 0 0 0 5 3 0 0 5 30 75 100 92 99 99 100 100 100 100 100 100 100 100 100 100 100
5 34 5 0 0 0 0 0 3 0 0 1 2 3 96 62 100 62 54 92 63 100 100 100 100 100 100 100 100 100 100 100
13 24 6 1 0 0 0 0 0 0 0 0 0 0 2 99 93 21 32 100 100 100 100 100 97 100 100 100 100 100 100 100
70 60 5 2 0 0 1 4 0 0 0 0 1 0 0 14 100 100 55 100 100 100 98 99 97 100 100 100 100 100 100 100
100 10 0 0 0 0 2 5 3 0 0 58 21 57 1 2 0 9 100 100 99 100 100 77 100 100 100 100 100 100 100 100
99 5 0 0 0 0 0 0 0 1 78 100 59 100 100 39 0 0 41 100 100 100 100 88 88 100 100 100 100 100 100 100

GFSFLT2_prec_cloud_138.txt.gz
Cloud_Cover
0 1 0 0 0 0 0 0 0 2 3 16 88 90 9 73 100 97 71 5 7 35 5 81 41 5 5 75 4 0 1 0
62 62 5 0 0 0 0 0 0 0 0 99 96 100 67 100 100 95 79 37 5 5 5 32 100 34 21 5 19 4 0 0
5 9 9 2 0 0 0 0 0 0 0 95 31 100 100 100 100 100 100 100 74 5 100 91 48 99 92 18 5 3 1 5
0 0 0 5 5 0 0 0 0 0 0 100 99 44 100 100 100 100 82 99 42 42 100 6 57 91 100 40 2 0 0 2
0 0 0 0 0 0 2 0 0 0 0 95 100 99 100 100 100 94 100 100 100 100 40 72 58 92 5 56 100 5 0 4
0 2 2 3 0 1 5 1 0 0 44 96 80 92 100 100 100 100 98 100 100 84 99 100 54 9 18 39 100 0 0 0
0 27 5 0 0 0 0 0 2 5 23 98 5 100 100 100 100 100 100 100 100 100 100 100 90 34 40 47 65 22 4 4
0 1 5 0 0 0 3 5 5 5 100 100 73 100 100 100 100 94 100 89 100 100 100 100 100 100 100 100 75 61 84 21
0 0 0 0 3 4 66 98 15 69 100 100 100 100 100 100 100 100 99 98 95 100 100 100 100 100 100 100 74 80 100 79
0 0 0 35 7 5 5 1 20 18 100 100 88 100 100 100 100 100 99 96 100 97 89 100 100 93 100 100 100 100 100 100
4 0 0 1 19 0 4 0 0 0 50 100 71 100 100 100 100 100 100 86 94 100 100 76 28 98 91 100 100 100 100 100
4 0 0 0 0 10 98 63 5 5 5 55 100 98 100 100 100 100 100 97 100 99 90 93 100 65 74 100 100 100 100 100
5 5 1 1 0 8 44 3 0 0 0 30 6 76 100 100 100 100 100 100 88 99 100 100 100 88 100 100 100 100 100 100
5 76 32 2 5 0 0 0 0 0 0 0 74 28 62 100 100 100 100 78 100 89 100 100 100 100 100 100 100 100 100 100
20 90 6 5 5 5 4 0 0 0 0 0 1 15 15 100 100 100 100 100 100 100 100 100 100 100 100 100 100 100 100 100
100 78 100 57 5 5 0 0 0 0 0 0 0 0 2 1 94 23 30 92 100 100 100 100 100 100 100 100 100 100 100 100
100 79 65 34 5 2 0 0 0 0 0 0 0 1 5 70 0 42 100 88 98 100 100 100 100 100 100 100 100 100 100 100
100 100 68 6 5 5 2 0 0 0 1 0 0 0 69 92 90 3 8 50 100 100 100 100 100 100 100 100 100 100 100 100
100 63 88 25 5 2 0 0 0 0 0 0 0 2 5 100 100 100 100 5 99 100 100 87 100 100 100 100 100 100 100 100

GFSFLT2_prec_cloud_141.txt.gz
Cloud_Cover
0 0 0 0 0 0 0 0 0 0 4 1 3 61 29 100 57 82 98 71 7 37 5 5 5 16 17 33 5 3 0 0
5 3 5 0 1 0 0 0 0 0 0 0 0 99 100 100 100 85 100 100 91 100 12 5 21 3 6 12 96 8 0 0
5 5 5 8 5 0 0 0 0 0 0 0 3 98 100 95 99 98 100 100 41 5 5 5 17 26 5 10 38 5 3 0
4 46 16 5 0 0 0 0 0 0 0 0 0 92 78 86 100 100 100 100 92 5 5 34 1 25 5 22 96 2 0 0
0 0 0 0 0 0 0 0 0 0 0 0 0 6 40 6 98 88 100 100 84 28 5 6 9 100 27 46 100 3 44 0
0 0 0 0 0 0 0 0 0 0 0 0 1 5 16 5 54 100 100 98 99 100 65 90 77 100 49 68 38 67 18 0
0 0 0 0 0 0 0 0 0 1 0 0 0 16 8 56 100 100 100 100 100 98 100 95 100 74 28 87 88 15 100 48
5 1 0 0 1 0 0 0 0 0 2 0 1 5 98 100 100 100 100 100 100 100 100 100 100 51 100 100 96 59 93 25
5 3 0 0 0 0 0 0 0 0 10 5 5 20 100 100 100 100 100 100 100 99 100 100 100 100 52 100 96 98 100 100
5 1 0 3 1 3 4 11 4 0 9 53 47 5 99 100 100 100 100 100 100 98 100 100 100 100 100 100 97 100 100 100
5 5 2 5 1 4 5 3 4 4 0 0 53 44 100 100 100 100 100 100 100 100 97 100 100 100 97 100 98 100 100 100
60 5 5 4 5 0 0 4 5 17 5 5 1 5 100 100 100 100 100 100 100 100 100 100 100 100 82 97 94 96 100 100
5 5 5 0 5 89 75 10 5 5 5 0 0 0 13 100 100 100 100 100 100 100 100 100 100 100 100 100 98 100 100 100
24 15 5 5 5 4 0 0 2 1 0 0 0 0 0 100 100 100 100 100 100 100 100 100 100 100 100 100 100 100 100 96
62 66 36 62 79 5 0 0 0 0 0 0 0 0 0 81 100 100 100 100 100 100 100 100 100 100 100 100 100 100 100 100
42 67 100 100 54 5 5 4 2 0 0 0 0 0 0 0 18 100 100 100 100 100 100 100 100 100 100 100 100 100 100 100
100 100 100 93 8 22 85 6 5 0 0 0 0 0 0 0 0 100 100 100 100 100 100 100 100 100 100 100 100 100 100 100
100 100 95 68 77 100 62 5 1 0 0 0 0 0 0 0 2 99 100 100 100 100 100 100 100 100 100 100 100 100 100 100
100 100 100 100 100 99 11 3 0 0 0 0 0 2 4 4 0 0 100 100 100 100 73 100 100 100 100 100 100 100 100 100